[[{"header":{"parameterUnit":"m.s-1","parameterCategory":1,"la1":30.2991,"la2":30.254,"lo1":-89.0895,"lo2":-89.0444,"dy":0.0017,"dx":0.0017,"nx":28,"ny":28,"refTime":"2024-05-29T21:00:00:Z","depth":0,"parameterNumber":2,"parameterNumberName":"U-component_of_WINDS"},"data":[0,0,0,0,0,0,0,0,0,0,0,0,0,0,0,0,0,0,0,0,0,0,0,0,0,0,0,0,0,0,0,0,0,0,0,0,0,0,0,0,0,0,0,0,0,0,0,0,0,0,0,0,0,0,0,0,0,0,-2.6226,-2.6226,0,-2.6234,-2.6234,-2.6234,-2.6175,-2.6173,-2.6172,-2.617,-2.6178,-2.6179,-2.6181,0,0,0,0,0,0,0,0,0,0,0,0,0,-2.6158,-2.6159,-2.6226,-2.6226,-2.6226,-2.6234,-2.6234,-2.6234,-2.6175,-2.6173,-2.6171,-2.6169,-2.6177,-2.6179,-2.6181,0,0,0,0,0,0,0,0,0,0,0,0,0,-2.6179,-2.616,-2.6226,-2.6197,-2.6195,-2.6234,-2.6234,-2.6234,-2.6176,-2.6173,-2.6171,-2.6168,-2.6176,-2.6179,-2.6182,-2.6248,0,0,-2.619,-2.6191,0,0,0,0,0,0,0,0,-2.6178,-2.6181,-2.6201,-2.6199,-2.6197,-2.6201,-2.6213,-2.6239,-2.6176,-2.6183,-2.617,-2.6167,-2.6187,-2.6189,-2.6196,-2.6248,-2.6248,-2.619,-2.6192,-2.6193,-2.6193,0,0,0,0,0,0,0,-2.6176,-2.618,-2.6229,-2.6202,-2.6199,-2.6184,-2.6184,-2.6217,-2.6199,-2.6182,-2.6178,-2.618,-2.6186,-2.6194,-2.6196,-2.6248,-2.619,-2.6192,-2.6194,-2.6195,-2.6355,-2.6357,0,0,0,0,0,0,-2.6179,-2.618,-2.6228,-2.6229,-2.6181,-2.6187,-2.6187,-2.6202,-2.6198,-2.6196,-2.6182,-2.6177,-2.619,-2.6193,-2.6196,-2.6272,-2.6193,-2.6195,-2.6197,-2.6352,-2.6355,-2.6358,0,0,0,0,0,0,-2.6177,-2.6184,-2.6228,-2.6203,-2.6208,-2.6191,-2.6208,-2.6203,-2.6211,-2.6198,-2.6195,-2.6193,-2.6188,-2.6192,-2.6235,-2.6272,-2.6196,-2.6199,-2.6349,-2.6353,-2.6357,-2.6427,0,0,0,0,0,0,-2.6176,-2.6183,-2.6209,-2.6204,-2.6209,-2.6268,-2.621,-2.6205,-2.6216,-2.621,-2.6208,-2.6205,-2.6187,-2.6232,-2.6238,-2.6274,-2.6201,-2.6345,-2.6351,-2.6355,-2.6421,-2.6433,-2.6442,0,0,0,0,0,-2.6173,-2.6228,-2.621,-2.6216,-2.6241,-2.627,-2.6273,-2.6251,-2.6219,-2.6244,-2.6236,-2.6205,-2.6267,-2.6236,-2.6243,-2.6281,-2.6343,-2.6349,-2.6355,-2.6416,-2.643,-2.6442,0,0,0,0,0,0,-2.6237,-2.6227,-2.6207,-2.6262,-2.6267,-2.626,-2.6291,-2.6266,-2.6281,-2.6274,-2.6245,-2.6246,-2.6293,-2.6291,-2.6257,-2.6344,-2.6299,-2.6307,-2.6344,-2.6357,-2.6368,-2.6367,-2.6203,0,0,0,0,0,-2.6257,-2.6283,-2.6272,-2.6322,-2.6325,-2.6308,-2.632,-2.6302,-2.6307,-2.6309,-2.6303,-2.6309,-2.6329,-2.6343,-2.6361,-2.642,-2.6419,-2.645,-2.646,-2.6469,-2.6476,-2.6507,-2.652,-2.6378,-2.6378,-2.6378,0,0,-2.63,-2.6297,-2.6315,-2.6334,-2.6336,-2.6363,-2.631,-2.634,-2.636,-2.6313,-2.6353,-2.635,-2.6354,-2.6405,-2.6428,-2.6405,-2.6515,-2.6477,-2.6484,-2.6486,-2.6514,-2.6528,-2.654,-2.6382,-2.6381,-2.638,0,0,-2.639,-2.6391,-2.6432,-2.6435,-2.6439,-2.6427,-2.6437,-2.6434,-2.643,-2.647,-2.6435,-2.6458,-2.6493,-2.6497,-2.6504,-2.6596,-2.6569,-2.6603,-2.6659,-2.6689,-2.6701,-2.671,-2.6743,-2.6755,-2.661,-2.661,-2.661,0,-2.6442,-2.6481,-2.6456,-2.6489,-2.6498,-2.6457,-2.6498,-2.6503,-2.6512,-2.652,-2.6494,-2.6538,-2.6538,-2.6589,-2.6612,-2.6619,-2.6629,-2.6603,-2.6701,-2.6711,-2.6719,-2.675,-2.6762,-2.6614,-2.6614,-2.6613,-2.6613,0,-2.6544,-2.6571,-2.6604,-2.6614,-2.6627,-2.6664,-2.6645,-2.6661,-2.6642,-2.6633,-2.6674,-2.6672,-2.6689,-2.67,-2.6682,-2.6749,-2.6735,-2.6706,-2.666,-2.6737,-2.6766,-2.6777,-2.662,-2.6619,-2.6617,-2.6616,0,0,-2.6674,-2.6671,-2.6683,-2.6687,-2.6689,-2.6709,-2.6744,-2.6761,-2.6775,-2.6783,-2.6811,-2.6842,-2.6815,-2.6823,-2.6805,-2.6832,-2.6904,-2.6799,-2.6799,-2.6818,-2.6978,-2.6999,-2.7013,-2.6886,-2.6888,-2.689,-2.6977,0,-2.6762,-2.6821,-2.68,-2.686,-2.6885,-2.6847,-2.6877,-2.6881,-2.6873,-2.6893,-2.6884,-2.6907,-2.6869,-2.6874,-2.6899,-2.689,-2.6936,-2.6884,-2.6911,-2.6913,-2.6911,-2.7028,-2.7051,-2.7133,-2.6988,-2.699,-2.6991,0,-2.6872,-2.6885,-2.6948,-2.6945,-2.6954,-2.6982,-2.6995,-2.7015,-2.7018,-2.7011,-2.702,-2.6996,-2.7029,-2.6984,-2.703,-2.6995,-2.7005,-2.7002,-2.7005,-2.7006,-2.6956,-2.7032,-2.7159,-2.7171,-2.7008,-2.7007,-2.7006,0,-2.696,-2.6993,-2.7035,-2.704,-2.7038,-2.7058,-2.7058,-2.7059,-2.707,-2.7082,-2.7089,-2.7104,-2.7113,-2.7125,-2.7106,-2.7075,-2.7154,-2.7107,-2.7148,-2.7149,-2.7166,-2.7165,-2.7296,-2.7174,-2.7174,-2.7173,-2.7173,0,-2.706,-2.71,-2.7074,-2.71,-2.7144,-2.7119,-2.7162,-2.7158,-2.716,-2.7183,-2.7151,-2.7174,-2.7148,-2.7168,-2.7154,-2.7193,-2.7197,-2.7192,-2.7187,-2.7194,-2.7195,-2.72,-2.7194,-2.7177,-2.7176,-2.7175,-2.7175,0,-2.7166,-2.715,-2.7193,-2.7188,-2.7187,-2.7219,-2.7214,-2.7238,-2.7228,-2.7258,-2.7264,-2.7248,-2.7271,-2.7253,-2.7275,-2.7265,-2.7317,-2.7305,-2.7316,-2.7312,-2.7354,-2.735,-2.7492,-2.751,-2.7377,-2.7378,-2.7379,0,-2.723,-2.726,-2.7258,-2.7272,-2.7274,-2.7296,-2.7308,-2.7285,-2.7298,-2.7304,-2.7327,-2.7346,-2.7361,-2.7398,-2.7389,-2.7405,-2.7393,-2.7441,-2.7395,-2.7401,-2.7393,-2.7391,-2.7394,-2.7451,-2.7452,-2.7454,-2.7455,0,-2.7346,-2.7337,-2.7355,-2.737,-2.7385,-2.7396,-2.7404,-2.7417,-2.7393,-2.741,-2.7432,-2.7444,-2.7466,-2.7486,-2.7499,-2.7499,-2.7473,-2.7469,-2.748,-2.7487,-2.7492,-2.7489,-2.7341,-2.7466,-2.7465,-2.7464,-2.7463,-2.7463,-2.7433,-2.7457,-2.746,-2.748,-2.7484,-2.7493,-2.7514,-2.7507,-2.7526,-2.7542,-2.7527,-2.7555,-2.7557,-2.7572,-2.7575,-2.7596,-2.7575,-2.759,-2.7594,-2.7598,-2.7604,-2.7489,-2.7598,-2.7598,-2.7597,-2.7597,-2.7597,0,-2.7547,-2.7546,-2.7566,-2.7578,-2.7595,-2.7569,-2.7577,-2.7592,-2.7617,-2.7622,-2.7637,-2.7662,-2.7682,-2.7674,-2.769,-2.7708,-2.7697,-2.7713,-2.7712,-2.7712,-2.7621,-2.761,-2.7722,-2.7722,-2.7722,-2.7722,-2.7722,-2.7722,-2.7608,-2.7648,-2.7639,-2.7681,-2.768,-2.7706,-2.7713,-2.772,-2.7724,-2.7754,-2.777,-2.7765,-2.7764,-2.7781,-2.7797,-2.7794,-2.7802,-2.7823,-2.7815,-2.7731,-2.7718,-2.7706,-2.7696,-2.7825,-2.7825,-2.7904,-2.7905,-2.7906]},{"header":{"parameterUnit":"m.s-1","parameterCategory":1,"la1":30.2991,"la2":30.254,"lo1":-89.0895,"lo2":-89.0444,"dy":0.0017,"dx":0.0017,"nx":28,"ny":28,"refTime":"2024-05-29T21:00:00:Z","depth":0,"parameterNumber":3,"parameterNumberName":"V-component_of_WINDS"},"data":[0,0,0,0,0,0,0,0,0,0,0,0,0,0,0,0,0,0,0,0,0,0,0,0,0,0,0,0,0,0,0,0,0,0,0,0,0,0,0,0,0,0,0,0,0,0,0,0,0,0,0,0,0,0,0,0,0,0,-0.885,-0.885,0,-0.8875,-0.8875,-0.8875,-0.8896,-0.8896,-0.8896,-0.8897,-0.8921,-0.8922,-0.8922,0,0,0,0,0,0,0,0,0,0,0,0,0,-0.8819,-0.882,-0.885,-0.885,-0.885,-0.8875,-0.8875,-0.8876,-0.8896,-0.8896,-0.8896,-0.8897,-0.8921,-0.8922,-0.8922,0,0,0,0,0,0,0,0,0,0,0,0,0,-0.8837,-0.882,-0.885,-0.8864,-0.8865,-0.8875,-0.8875,-0.8876,-0.8896,-0.8896,-0.8896,-0.8897,-0.8921,-0.8922,-0.8922,-0.892,0,0,-0.8924,-0.8925,0,0,0,0,0,0,0,0,-0.8836,-0.8838,-0.8861,-0.8863,-0.8864,-0.8883,-0.8874,-0.889,-0.8896,-0.8884,-0.8897,-0.8897,-0.8908,-0.891,-0.8914,-0.8921,-0.8922,-0.8925,-0.8925,-0.8925,-0.8925,0,0,0,0,0,0,0,-0.8835,-0.8837,-0.886,-0.8861,-0.8863,-0.8868,-0.8871,-0.8877,-0.8894,-0.8885,-0.8887,-0.8889,-0.8909,-0.8913,-0.8915,-0.8923,-0.8925,-0.8925,-0.8926,-0.8926,-0.8931,-0.8931,0,0,0,0,0,0,-0.8832,-0.8836,-0.8859,-0.886,-0.8851,-0.8869,-0.8872,-0.8876,-0.8894,-0.8897,-0.8889,-0.889,-0.8912,-0.8914,-0.8916,-0.8915,-0.8925,-0.8926,-0.8926,-0.8931,-0.8931,-0.8931,0,0,0,0,0,0,-0.8831,-0.8833,-0.8858,-0.8849,-0.8852,-0.8869,-0.8874,-0.8877,-0.8881,-0.8897,-0.89,-0.889,-0.8912,-0.8915,-0.8919,-0.8916,-0.8926,-0.8927,-0.8932,-0.8931,-0.8931,-0.8914,0,0,0,0,0,0,-0.883,-0.8833,-0.8832,-0.8849,-0.8853,-0.8861,-0.8873,-0.8877,-0.8882,-0.8884,-0.8899,-0.8902,-0.8913,-0.8918,-0.892,-0.8917,-0.8927,-0.8932,-0.8931,-0.8931,-0.8915,-0.8913,-0.8911,0,0,0,0,0,-0.8829,-0.8826,-0.8832,-0.8835,-0.8852,-0.8861,-0.8863,-0.8876,-0.8882,-0.8881,-0.8892,-0.8901,-0.8916,-0.8918,-0.8921,-0.8918,-0.8932,-0.8932,-0.8931,-0.8915,-0.8913,-0.8911,0,0,0,0,0,0,-0.8808,-0.8828,-0.8835,-0.8838,-0.8848,-0.8864,-0.8864,-0.8873,-0.8881,-0.8882,-0.8898,-0.8901,-0.8904,-0.8912,-0.8914,-0.8918,-0.8925,-0.8925,-0.8913,-0.8911,-0.8909,-0.8907,-0.8928,0,0,0,0,0,-0.8804,-0.881,-0.8827,-0.8827,-0.8832,-0.8847,-0.8851,-0.8861,-0.8871,-0.8875,-0.8886,-0.8896,-0.8903,-0.8907,-0.8914,-0.8916,-0.892,-0.8915,-0.8913,-0.8912,-0.8912,-0.8914,-0.8912,-0.8929,-0.8929,-0.8929,0,0,-0.8796,-0.8807,-0.881,-0.8824,-0.8832,-0.8838,-0.885,-0.8855,-0.886,-0.8876,-0.8881,-0.889,-0.8902,-0.8905,-0.8907,-0.8911,-0.8908,-0.8911,-0.891,-0.891,-0.8913,-0.8912,-0.891,-0.8928,-0.8928,-0.8928,0,0,-0.8783,-0.8792,-0.8794,-0.8803,-0.8816,-0.8826,-0.8826,-0.8842,-0.8848,-0.8854,-0.8867,-0.8872,-0.8884,-0.8892,-0.8898,-0.8889,-0.8899,-0.8891,-0.8882,-0.8884,-0.8883,-0.8882,-0.888,-0.8879,-0.8891,-0.8891,-0.8891,0,-0.877,-0.8779,-0.8794,-0.8798,-0.8805,-0.882,-0.8822,-0.883,-0.8844,-0.8848,-0.8853,-0.8869,-0.8878,-0.8884,-0.8882,-0.8886,-0.8887,-0.889,-0.8882,-0.8881,-0.8881,-0.8879,-0.8878,-0.889,-0.889,-0.889,-0.889,0,-0.8764,-0.877,-0.877,-0.8785,-0.8791,-0.8794,-0.8809,-0.8813,-0.8822,-0.8832,-0.8838,-0.885,-0.886,-0.8862,-0.8871,-0.887,-0.8872,-0.8879,-0.8888,-0.8878,-0.8876,-0.8876,-0.8889,-0.8889,-0.8889,-0.8889,0,0,-0.8739,-0.8762,-0.8762,-0.8769,-0.8785,-0.879,-0.8795,-0.8805,-0.8809,-0.8819,-0.8823,-0.8833,-0.8841,-0.8847,-0.8857,-0.8858,-0.8852,-0.8865,-0.8866,-0.8863,-0.8853,-0.8848,-0.8847,-0.8858,-0.8858,-0.8858,-0.8852,0,-0.8729,-0.8738,-0.8752,-0.8757,-0.8763,-0.8778,-0.8782,-0.8793,-0.8802,-0.8809,-0.8819,-0.8826,-0.8835,-0.8839,-0.8841,-0.8852,-0.885,-0.8853,-0.8863,-0.8863,-0.886,-0.8846,-0.8841,-0.8835,-0.8852,-0.8852,-0.8852,0,-0.8719,-0.8729,-0.8735,-0.8751,-0.8754,-0.8758,-0.8769,-0.8775,-0.8788,-0.8795,-0.8803,-0.8813,-0.8819,-0.8826,-0.8835,-0.8836,-0.8841,-0.8847,-0.8848,-0.8849,-0.8857,-0.8848,-0.8833,-0.8832,-0.8851,-0.8851,-0.8851,0,-0.8701,-0.8716,-0.8721,-0.8727,-0.8746,-0.8749,-0.8757,-0.8769,-0.8775,-0.8785,-0.879,-0.88,-0.8806,-0.8813,-0.8827,-0.8831,-0.8834,-0.8842,-0.8841,-0.884,-0.8841,-0.8841,-0.8827,-0.8843,-0.8843,-0.8843,-0.8843,0,-0.869,-0.8693,-0.8714,-0.8717,-0.8721,-0.8737,-0.8741,-0.875,-0.8761,-0.8767,-0.8781,-0.8786,-0.8803,-0.881,-0.882,-0.8826,-0.8829,-0.8835,-0.8838,-0.8834,-0.8833,-0.8838,-0.8839,-0.8843,-0.8843,-0.8843,-0.8843,0,-0.8671,-0.8685,-0.8692,-0.871,-0.8715,-0.8717,-0.8733,-0.8737,-0.8747,-0.8754,-0.8757,-0.8774,-0.8783,-0.8797,-0.881,-0.8817,-0.8822,-0.8826,-0.8818,-0.882,-0.8817,-0.8818,-0.8806,-0.8806,-0.8821,-0.8821,-0.8821,0,-0.8662,-0.8665,-0.8684,-0.8689,-0.8697,-0.8705,-0.8711,-0.8727,-0.8733,-0.8748,-0.875,-0.8761,-0.877,-0.8784,-0.8797,-0.8808,-0.8813,-0.8808,-0.8814,-0.8811,-0.8814,-0.8814,-0.8814,-0.8807,-0.8806,-0.8806,-0.8806,0,-0.8647,-0.8654,-0.8663,-0.8675,-0.8682,-0.8692,-0.8702,-0.8706,-0.8723,-0.873,-0.874,-0.8747,-0.8761,-0.8771,-0.8784,-0.8792,-0.8802,-0.8804,-0.8804,-0.8801,-0.8796,-0.8799,-0.8814,-0.8804,-0.8804,-0.8804,-0.8805,-0.8805,-0.8634,-0.8637,-0.8651,-0.8661,-0.8671,-0.868,-0.8686,-0.8697,-0.8706,-0.8719,-0.8727,-0.8737,-0.875,-0.8768,-0.8776,-0.8784,-0.8788,-0.8788,-0.8789,-0.8789,-0.8788,-0.8795,-0.8786,-0.8786,-0.8787,-0.8787,-0.8787,0,-0.8619,-0.8629,-0.8638,-0.8653,-0.8661,-0.867,-0.8682,-0.8688,-0.8696,-0.8708,-0.8717,-0.8729,-0.8739,-0.8754,-0.8765,-0.8769,-0.8774,-0.8772,-0.8772,-0.8774,-0.8783,-0.8782,-0.8768,-0.8768,-0.8768,-0.8768,-0.8768,-0.8768,-0.8613,-0.862,-0.8629,-0.8641,-0.8651,-0.8661,-0.8667,-0.8677,-0.8686,-0.8699,-0.8708,-0.8717,-0.873,-0.8743,-0.8753,-0.8757,-0.8761,-0.8758,-0.8763,-0.8771,-0.8773,-0.8775,-0.8774,-0.8758,-0.8758,-0.8753,-0.8753,-0.8753]}]]